Time,TemperatureF,DewpointF,PressureIn,WindDirection,WindDirectionDegrees,WindSpeedMPH,WindSpeedGustMPH,Humidity,HourlyPrecipIn,Conditions,Clouds,dailyrainin,SolarRadiationWatts/m^2,SoftwareType,DateUTC
2013-03-27 00:14:00,35.6,21.0,29.82,West,271,1.0,4.0,55,0.00,,,0.00,0,weatherlink.com 1.10,2013-03-27 04:14:00,
2013-03-27 00:29:00,35.6,21.0,29.82,South,189,1.0,4.0,55,0.00,,,0.00,0,weatherlink.com 1.10,2013-03-27 04:29:00,
2013-03-27 00:44:00,35.4,21.0,29.82,WNW,288,0.0,2.0,56,0.00,,,0.00,0,weatherlink.com 1.10,2013-03-27 04:44:00,
2013-03-27 00:59:00,35.1,21.0,29.82,WSW,240,0.0,2.0,56,0.00,,,0.00,0,weatherlink.com 1.10,2013-03-27 04:59:00,
2013-03-27 01:14:00,34.7,21.0,29.82,SW,227,0.0,2.0,57,0.00,,,0.00,0,weatherlink.com 1.10,2013-03-27 05:14:00,
2013-03-27 01:29:00,34.3,21.0,29.83,SW,225,0.0,1.0,58,0.00,,,0.00,0,weatherlink.com 1.10,2013-03-27 05:29:00,
2013-03-27 01:44:00,34.0,20.0,29.82,SW,219,0.0,3.0,58,0.00,,,0.00,0,weatherlink.com 1.10,2013-03-27 05:44:00,
2013-03-27 01:59:00,34.0,20.0,29.82,SSW,209,1.0,3.0,58,0.00,,,0.00,0,weatherlink.com 1.10,2013-03-27 05:59:00,
2013-03-27 02:14:00,34.2,21.0,29.82,WNW,298,0.0,5.0,58,0.00,,,0.00,0,weatherlink.com 1.10,2013-03-27 06:14:00,
2013-03-27 02:29:00,34.3,21.0,29.82,South,179,2.0,3.0,59,0.00,,,0.00,0,weatherlink.com 1.10,2013-03-27 06:29:00,
2013-03-27 02:44:00,34.5,21.0,29.82,NW,306,0.0,5.0,59,0.00,,,0.00,0,weatherlink.com 1.10,2013-03-27 06:44:00,
2013-03-27 03:00:00,34.5,22.0,29.82,South,190,2.0,3.0,60,0.00,,,0.00,0,weatherlink.com 1.10,2013-03-27 07:00:00,
2013-03-27 03:14:00,34.2,21.0,29.82,SSE,155,1.0,2.0,60,0.00,,,0.00,0,weatherlink.com 1.10,2013-03-27 07:14:00,
2013-03-27 03:29:00,33.8,22.0,29.82,SSE,155,0.0,1.0,63,0.00,,,0.00,0,weatherlink.com 1.10,2013-03-27 07:29:00,
2013-03-27 03:45:00,32.7,22.0,29.82,SSE,155,0.0,2.0,65,0.00,,,0.00,0,weatherlink.com 1.10,2013-03-27 07:45:00,
2013-03-27 04:00:00,31.3,22.0,29.82,SSE,155,0.0,2.0,68,0.00,,,0.00,0,weatherlink.com 1.10,2013-03-27 08:00:00,
2013-03-27 04:15:00,30.2,22.0,29.82,SSE,155,0.0,3.0,70,0.00,,,0.00,0,weatherlink.com 1.10,2013-03-27 08:15:00,
2013-03-27 04:30:00,29.5,22.0,29.82,SSE,155,1.0,2.0,72,0.00,,,0.00,0,weatherlink.com 1.10,2013-03-27 08:30:00,
2013-03-27 04:45:00,28.8,21.0,29.82,SSE,155,0.0,2.0,73,0.00,,,0.00,0,weatherlink.com 1.10,2013-03-27 08:45:00,
2013-03-27 05:00:00,28.3,21.0,29.82,SSE,155,0.0,1.0,74,0.00,,,0.00,0,weatherlink.com 1.10,2013-03-27 09:00:00,
2013-03-27 05:15:00,28.0,21.0,29.82,SSE,155,0.0,0.0,75,0.00,,,0.00,0,weatherlink.com 1.10,2013-03-27 09:15:00,
2013-03-27 05:30:00,27.7,21.0,29.82,SSE,155,0.0,1.0,75,0.00,,,0.00,0,weatherlink.com 1.10,2013-03-27 09:30:00,
2013-03-27 05:45:00,27.1,20.0,29.83,SSE,155,1.0,1.0,76,0.00,,,0.00,0,weatherlink.com 1.10,2013-03-27 09:45:00,
2013-03-27 06:00:00,26.7,20.0,29.83,SSE,155,0.0,3.0,77,0.00,,,0.00,0,weatherlink.com 1.10,2013-03-27 10:00:00,
2013-03-27 06:15:00,26.5,21.0,29.84,SSE,155,0.0,2.0,78,0.00,,,0.00,0,weatherlink.com 1.10,2013-03-27 10:15:00,
2013-03-27 06:30:00,26.1,20.0,29.84,SSE,155,0.0,2.0,78,0.00,,,0.00,0,weatherlink.com 1.10,2013-03-27 10:30:00,
2013-03-27 06:45:00,25.9,20.0,29.84,SSE,155,0.0,0.0,79,0.00,,,0.00,0,weatherlink.com 1.10,2013-03-27 10:45:00,
2013-03-27 07:00:00,25.7,20.0,29.85,SSE,155,0.0,0.0,80,0.00,,,0.00,5,weatherlink.com 1.10,2013-03-27 11:00:00,
2013-03-27 07:15:00,25.5,20.0,29.86,SSE,155,0.0,1.0,80,0.00,,,0.00,9,weatherlink.com 1.10,2013-03-27 11:15:00,
2013-03-27 07:30:00,25.4,20.0,29.86,SSE,155,0.0,0.0,81,0.00,,,0.00,12,weatherlink.com 1.10,2013-03-27 11:30:00,
2013-03-27 07:45:00,25.5,21.0,29.86,SSE,155,0.0,0.0,82,0.00,,,0.00,18,weatherlink.com 1.10,2013-03-27 11:45:00,
2013-03-27 08:00:00,25.8,22.0,29.86,SSE,155,1.0,1.0,84,0.00,,,0.00,25,weatherlink.com 1.10,2013-03-27 12:00:00,
2013-03-27 08:15:00,26.4,23.0,29.87,SSE,155,0.0,1.0,85,0.00,,,0.00,35,weatherlink.com 1.10,2013-03-27 12:15:00,
2013-03-27 08:30:00,27.5,24.0,29.87,SSE,155,1.0,1.0,86,0.00,,,0.00,44,weatherlink.com 1.10,2013-03-27 12:30:00,
2013-03-27 08:45:00,28.7,25.0,29.87,SSE,155,0.0,2.0,85,0.00,,,0.00,70,weatherlink.com 1.10,2013-03-27 12:45:00,
2013-03-27 09:00:00,30.4,26.0,29.87,SSE,155,0.0,2.0,84,0.00,,,0.00,102,weatherlink.com 1.10,2013-03-27 13:00:00,
2013-03-27 09:15:00,32.2,27.0,29.87,SSE,155,0.0,1.0,82,0.00,,,0.00,97,weatherlink.com 1.10,2013-03-27 13:15:00,
2013-03-27 09:30:00,33.8,28.0,29.87,SSE,155,0.0,1.0,78,0.00,,,0.00,118,weatherlink.com 1.10,2013-03-27 13:30:00,
2013-03-27 09:45:00,36.0,28.0,29.87,South,190,0.0,1.0,74,0.00,,,0.00,121,weatherlink.com 1.10,2013-03-27 13:45:00,
2013-03-27 11:13:00,44.2,27.0,29.85,SSE,167,1.0,4.0,52,0.00,,,0.00,679,weatherlink.com 1.10,2013-03-27 15:13:00,
2013-03-27 11:31:00,45.8,28.0,29.84,South,185,1.0,4.0,50,0.00,,,0.00,819,weatherlink.com 1.10,2013-03-27 15:31:00,
2013-03-27 12:01:00,49.2,29.0,29.84,NNW,338,1.0,2.0,45,0.00,,,0.00,744,weatherlink.com 1.10,2013-03-27 16:01:00,
2013-03-27 12:46:00,49.7,25.0,29.83,North,355,1.0,7.0,39,0.00,,,0.00,1046,weatherlink.com 1.10,2013-03-27 16:46:00,
2013-03-27 13:01:00,49.3,26.0,29.83,WNW,290,3.0,7.0,40,0.00,,,0.00,295,weatherlink.com 1.10,2013-03-27 17:01:00,
2013-03-27 13:16:00,50.4,26.0,29.82,SW,222,1.0,7.0,39,0.00,,,0.00,654,weatherlink.com 1.10,2013-03-27 17:16:00,
2013-03-27 13:31:00,50.2,26.0,29.82,South,186,0.0,4.0,39,0.00,,,0.00,369,weatherlink.com 1.10,2013-03-27 17:31:00,
2013-03-27 13:46:00,48.9,23.0,29.82,West,271,2.0,8.0,37,0.00,,,0.00,93,weatherlink.com 1.10,2013-03-27 17:46:00,
2013-03-27 14:01:00,48.8,23.0,29.81,NW,314,3.0,6.0,37,0.00,,,0.00,244,weatherlink.com 1.10,2013-03-27 18:01:00,
2013-03-27 14:16:00,49.2,24.0,29.81,NW,323,3.0,8.0,37,0.00,,,0.00,171,weatherlink.com 1.10,2013-03-27 18:16:00,
2013-03-27 14:31:00,49.1,24.0,29.82,West,263,0.0,11.0,38,0.00,,,0.00,183,weatherlink.com 1.10,2013-03-27 18:31:00,
2013-03-27 14:46:00,49.4,24.0,29.82,WSW,252,2.0,8.0,37,0.00,,,0.00,269,weatherlink.com 1.10,2013-03-27 18:46:00,
2013-03-27 15:01:00,51.4,24.0,29.81,NE,46,2.0,9.0,35,0.00,,,0.00,870,weatherlink.com 1.10,2013-03-27 19:01:00,
2013-03-27 15:16:00,51.8,25.0,29.81,South,174,3.0,8.0,35,0.00,,,0.00,1002,weatherlink.com 1.10,2013-03-27 19:16:00,
2013-03-27 15:31:00,50.2,23.0,29.82,North,349,5.0,13.0,35,0.00,,,0.00,220,weatherlink.com 1.10,2013-03-27 19:31:00,
2013-03-27 15:46:00,48.6,21.0,29.82,NNW,337,3.0,7.0,34,0.00,,,0.00,190,weatherlink.com 1.10,2013-03-27 19:46:00,
2013-03-27 16:01:00,50.5,24.0,29.82,West,276,3.0,8.0,36,0.00,,,0.00,506,weatherlink.com 1.10,2013-03-27 20:01:00,
2013-03-27 16:16:00,51.7,24.0,29.81,NNW,338,2.0,8.0,34,0.00,,,0.00,661,weatherlink.com 1.10,2013-03-27 20:16:00,
2013-03-27 16:31:00,51.9,23.0,29.82,SSW,200,1.0,7.0,32,0.00,,,0.00,63,weatherlink.com 1.10,2013-03-27 20:31:00,
2013-03-27 16:46:00,49.2,22.0,29.82,North,350,1.0,6.0,35,0.00,,,0.00,86,weatherlink.com 1.10,2013-03-27 20:46:00,
2013-03-27 17:01:00,49.0,22.0,29.82,NNW,338,4.0,6.0,34,0.00,,,0.00,120,weatherlink.com 1.10,2013-03-27 21:01:00,
2013-03-27 17:16:00,50.0,22.0,29.82,SSE,156,1.0,4.0,33,0.00,,,0.00,462,weatherlink.com 1.10,2013-03-27 21:16:00,
2013-03-27 17:31:00,49.4,20.0,29.83,South,180,5.0,7.0,31,0.00,,,0.00,134,weatherlink.com 1.10,2013-03-27 21:31:00,
2013-03-27 17:46:00,49.5,22.0,29.83,SE,130,1.0,9.0,34,0.00,,,0.00,104,weatherlink.com 1.10,2013-03-27 21:46:00,
2013-03-27 18:01:00,49.1,22.0,29.84,NNW,335,1.0,5.0,35,0.00,,,0.00,95,weatherlink.com 1.10,2013-03-27 22:01:00,
2013-03-27 18:17:00,48.9,23.0,29.85,SW,230,3.0,8.0,36,0.00,,,0.00,74,weatherlink.com 1.10,2013-03-27 22:17:00,
2013-03-27 18:31:00,48.4,24.0,29.85,NNW,329,1.0,7.0,39,0.00,,,0.00,56,weatherlink.com 1.10,2013-03-27 22:31:00,
2013-03-27 19:01:00,46.7,24.0,29.86,WNW,297,1.0,6.0,41,0.00,,,0.00,11,weatherlink.com 1.10,2013-03-27 23:01:00,
2013-03-27 19:16:00,46.0,23.0,29.87,NNW,339,2.0,9.0,41,0.00,,,0.00,0,weatherlink.com 1.10,2013-03-27 23:16:00,
2013-03-27 19:31:00,45.2,24.0,29.87,NW,311,3.0,8.0,43,0.00,,,0.00,0,weatherlink.com 1.10,2013-03-27 23:31:00,
2013-03-27 19:46:00,44.5,25.0,29.88,NNW,344,1.0,6.0,46,0.00,,,0.00,0,weatherlink.com 1.10,2013-03-27 23:46:00,
2013-03-27 20:01:00,43.8,25.0,29.88,WNW,285,0.0,4.0,48,0.00,,,0.00,0,weatherlink.com 1.10,2013-03-28 00:01:00,
2013-03-27 20:16:00,43.4,25.0,29.88,NW,319,1.0,5.0,49,0.00,,,0.00,0,weatherlink.com 1.10,2013-03-28 00:16:00,
2013-03-27 20:31:00,42.8,26.0,29.89,NNW,346,1.0,3.0,51,0.00,,,0.00,0,weatherlink.com 1.10,2013-03-28 00:31:00,
2013-03-27 20:46:00,42.4,26.0,29.90,South,178,1.0,5.0,52,0.00,,,0.00,0,weatherlink.com 1.10,2013-03-28 00:46:00,
2013-03-27 21:02:00,42.0,26.0,29.90,NNE,24,0.0,4.0,53,0.00,,,0.00,0,weatherlink.com 1.10,2013-03-28 01:02:00,
2013-03-27 21:17:00,41.7,26.0,29.91,WNW,291,0.0,3.0,54,0.00,,,0.00,0,weatherlink.com 1.10,2013-03-28 01:17:00,
2013-03-27 21:32:00,41.3,26.0,29.91,NNW,330,0.0,3.0,55,0.00,,,0.00,0,weatherlink.com 1.10,2013-03-28 01:32:00,
2013-03-27 21:47:00,41.0,26.0,29.91,WNW,290,1.0,4.0,56,0.00,,,0.00,0,weatherlink.com 1.10,2013-03-28 01:47:00,
2013-03-27 22:02:00,40.8,26.0,29.91,NW,304,0.0,2.0,57,0.00,,,0.00,0,weatherlink.com 1.10,2013-03-28 02:02:00,
2013-03-27 22:32:00,40.3,26.0,29.91,NW,319,0.0,6.0,58,0.00,,,0.00,0,weatherlink.com 1.10,2013-03-28 02:32:00,
2013-03-27 22:47:00,40.0,27.0,29.92,NW,306,1.0,5.0,59,0.00,,,0.00,0,weatherlink.com 1.10,2013-03-28 02:47:00,
2013-03-27 23:02:00,39.8,26.0,29.92,WNW,302,0.0,2.0,59,0.00,,,0.00,0,weatherlink.com 1.10,2013-03-28 03:02:00,
2013-03-27 23:17:00,39.8,27.0,29.92,WNW,294,1.0,3.0,60,0.00,,,0.00,0,weatherlink.com 1.10,2013-03-28 03:17:00,
2013-03-27 23:32:00,39.5,27.0,29.91,NNW,329,1.0,3.0,61,0.00,,,0.00,0,weatherlink.com 1.10,2013-03-28 03:32:00,
2013-03-27 23:47:00,39.5,27.0,29.91,NW,310,0.0,2.0,62,0.00,,,0.00,0,weatherlink.com 1.10,2013-03-28 03:47:00,